EW6103 Weather Reports


Display with metric or nautical units.
time (UTC)temp
F
wind
direction
speed
MPH
gust
MPH
rain 1hr
in
rain 24hr
in
rain mn
in
humidity
%
barometer
mb
20181114222007 35 90 0.0 0.0 0.00 0.00 0.00 99 1031.6
20181114221006 36 90 0.0 1.0 0.00 0.00 0.00 99 1031.5
20181114215008 35 45 0.0 1.0 0.00 0.00 0.00 99 1031.4
20181114213007 35 0 0.0 0.0 0.00 0.00 0.00 99 1031.4
20181114205007 35 45 0.0 1.0 0.00 0.00 0.00 99 1031.7
20181114204007 34 45 0.0 1.0 0.00 0.00 0.00 99 1031.7
20181114203008 33 225 0.0 0.0 0.00 0.00 0.00 99 1031.8
20181114202010 33 45 0.0 1.0 0.00 0.00 0.00 99 1031.8
20181114201008 32 0 0.0 1.0 0.00 0.00 0.00 99 1031.7
20181114195008 32 45 0.0 0.0 0.00 0.00 0.00 99 1031.7
20181114194007 32 45 0.0 0.0 0.00 0.00 0.00 99 1031.8
20181114193007 33 45 0.0 1.0 0.00 0.00 0.00 99 1031.7
20181114192008 33 45 0.0 0.0 0.00 0.00 0.00 99 1031.5
20181114190009 33 180 0.0 0.0 0.00 0.00 0.00 99 1031.5
20181114185008 34 180 0.0 0.0 0.00 0.00 0.00 99 1031.4
20181114184006 34 180 0.0 1.0 0.00 0.00 0.00 99 1031.4
20181114183009 34 45 0.0 1.0 0.00 0.00 0.00 99 1031.4
20181114182007 35 45 0.0 1.0 0.00 0.00 0.00 99 1031.3
20181114181008 35 0 0.0 1.0 0.00 0.00 0.00 99 1031.3
20181114180010 36 0 0.0 2.0 0.00 0.01 0.00 99 1031.1
20181114175008 36 0 0.0 1.0 0.00 0.01 0.00 99 1031.0
20181114173008 37 90 1.0 3.0 0.00 0.01 0.00 99 1030.9
20181114172007 37 90 1.0 2.0 0.00 0.01 0.00 99 1031.0
20181114171006 37 90 0.0 1.0 0.00 0.01 0.00 97 1030.8
20181114170007 38 45 0.0 1.0 0.00 0.01 0.00 97 1030.7
20181114165007 39 45 0.0 2.0 0.00 0.01 0.00 97 1030.5
20181114164007 39 0 1.0 2.0 0.00 0.01 0.00 97 1030.4
20181114161008 41 0 0.0 1.0 0.00 0.01 0.00 95 1030.3
20181114160009 41 45 0.0 2.0 0.00 0.01 0.00 95 1030.3
20181114155009 42 0 1.0 2.0 0.00 0.01 0.00 93 1030.2
20181114151009 45 315 0.0 1.0 0.00 0.01 0.00 88 1030.2
20181114150010 46 315 2.0 3.0 0.00 0.01 0.00 86 1030.3
20181114145009 46 315 2.0 3.0 0.00 0.01 0.00 86 1030.3
20181114142006 48 270 3.0 4.0 0.00 0.01 0.00 84 1030.2
20181114135007 50 315 4.0 7.0 0.00 0.01 0.00 75 1030.0
20181114134008 52 270 4.0 6.0 0.00 0.01 0.00 77 1029.8
20181114133008 51 270 5.0 7.0 0.00 0.01 0.00 75 1029.8
20181114131009 52 270 4.0 8.0 0.00 0.01 0.00 75 1029.8
20181114130008 52 270 6.0 8.0 0.00 0.01 0.00 75 1029.6
20181114125007 53 270 4.0 7.0 0.00 0.01 0.00 74 1029.6
20181114124009 52 270 5.0 9.0 0.00 0.01 0.00 72 1029.7
20181114121009 53 270 5.0 9.0 0.00 0.01 0.00 72 1029.9
20181114115009 55 270 5.0 8.0 0.00 0.01 0.00 74 1029.8
20181114111008 53 270 5.0 8.0 0.00 0.01 0.00 78 1030.3
20181114110009 53 270 4.0 6.0 0.00 0.01 0.00 80 1030.4
20181114104007 53 270 4.0 8.0 0.00 0.01 0.00 81 1030.6
20181114103009 52 270 5.0 7.0 0.00 0.01 0.00 82 1030.6
20181114100007 49 270 4.0 7.0 0.00 0.01 0.00 86 1030.8
20181114095008 49 315 5.0 9.0 0.00 0.01 0.00 86 1030.9
20181114094008 49 315 5.0 9.0 0.00 0.01 0.00 88 1031.0
20181114093010 50 315 4.0 8.0 0.00 0.01 0.00 89 1030.8
20181114092009 48 270 5.0 8.0 0.00 0.01 0.00 92 1031.0
20181114091008 48 315 4.0 7.0 0.00 0.01 0.00 92 1031.0
20181114085007 46 270 5.0 8.0 0.00 0.01 0.00 96 1031.0
20181114083008 45 225 4.0 5.0 0.00 0.01 0.00 99 1031.0
20181114082014 44 270 3.0 5.0 0.00 0.01 0.00 99 1031.1
20181114074007 39 135 0.0 2.0 0.00 0.01 0.00 99 1031.2
20181114073008 38 135 1.0 2.0 0.00 0.01 0.00 99 1031.3
20181114072007 37 315 0.0 0.0 0.00 0.01 0.00 99 1031.4
20181114071008 36 45 0.0 1.0 0.00 0.01 0.00 99 1031.3
20181114070008 35 45 0.0 1.0 0.00 0.01 0.00 99 1031.3
20181114065008 35 45 0.0 1.0 0.00 0.01 0.00 99 1031.4
20181114064007 35 180 0.0 0.0 0.00 0.01 0.00 99 1031.2
20181114063006 35 180 0.0 2.0 0.00 0.01 0.00 99 1031.2
20181114062007 35 180 0.0 1.0 0.00 0.01 0.00 99 1031.2
20181114061007 36 45 1.0 2.0 0.00 0.01 0.00 99 1031.3
20181114060011 36 225 0.0 2.0 0.00 0.01 0.00 99 1031.2
20181114055009 36 225 0.0 2.0 0.00 0.01 0.00 99 1031.1
20181114054007 37 90 0.0 1.0 0.00 0.01 0.00 99 1031.0
20181114053009 37 90 0.0 1.0 0.00 0.01 0.00 99 1031.1
20181114052007 37 45 0.0 1.0 0.00 0.01 0.00 99 1031.2
20181114051008 37 315 2.0 3.0 0.00 0.01 0.00 99 1031.2
20181114050008 36 315 2.0 3.0 0.00 0.01 0.00 99 1031.1
20181114045008 35 315 1.0 3.0 0.00 0.01 0.00 99 1031.1
20181114044007 35 315 2.0 4.0 0.00 0.01 0.00 99 1031.0
20181114042008 35 315 3.0 4.0 0.00 0.01 0.00 99 1030.9
20181114041007 35 315 0.0 2.0 0.00 0.01 0.00 99 1030.8
20181114040010 36 0 0.0 1.0 0.00 0.01 0.00 99 1031.0
20181114033007 37 315 1.0 2.0 0.00 0.01 0.00 99 1030.9
20181114032008 38 315 2.0 4.0 0.00 0.01 0.00 99 1030.6
20181114031009 39 315 3.0 4.0 0.00 0.01 0.00 99 1030.6
20181114025008 39 315 2.0 3.0 0.00 0.01 0.00 99 1030.5
20181114024006 39 315 2.0 3.0 0.00 0.01 0.00 99 1030.6
20181114023007 38 315 0.0 1.0 0.00 0.01 0.00 99 1030.7
20181114021006 39 0 1.0 2.0 0.00 0.01 0.00 99 1030.7
20181114020008 37 315 1.0 2.0 0.00 0.01 0.00 99 1030.8
20181114015009 37 0 0.0 1.0 0.00 0.01 0.00 99 1030.7
20181114014007 37 0 0.0 1.0 0.00 0.01 0.00 99 1030.6
20181114013008 37 315 0.0 2.0 0.00 0.01 0.00 99 1030.6
20181114012006 38 45 0.0 1.0 0.00 0.01 0.00 99 1030.6
20181114011006 38 135 0.0 1.0 0.00 0.01 0.00 99 1030.5
20181114010008 38 135 0.0 1.0 0.00 0.01 0.00 99 1030.6
20181114005007 39 0 0.0 1.0 0.00 0.01 0.00 99 1030.3
20181114004008 40 0 0.0 1.0 0.00 0.01 0.00 99 1030.2
20181114003008 40 0 0.0 1.0 0.00 0.01 0.00 99 1030.0
20181114002007 42 0 0.0 0.0 0.00 0.01 0.00 99 1030.0
20181113233008 45 315 1.0 3.0 0.00 0.01 0.00 99 1029.6
20181113232009 45 315 3.0 4.0 0.00 0.01 0.00 99 1029.4
20181113231008 45 270 3.0 4.0 0.00 0.01 0.00 99 1029.6
20181113225008 44 270 3.0 4.0 0.00 0.01 0.01 99 1029.7
20181113224009 44 270 3.0 4.0 0.00 0.01 0.01 99 1029.5
20181113223009 44 315 1.0 2.0 0.00 0.01 0.01 99 1029.5